Meteo pe oră la Punakha

Astăzi, 24 Octombrie, Sâmbătă

Timp Temperatura Precipitaţii Vânt Presiune Umiditate
00:00 +14°C° 0 mm 1 m/s 584 mmHg 80%
01:00 +13°C° 0 mm 1 m/s 584 mmHg 78%
02:00 +13°C° 0 mm 1 m/s 583 mmHg 75%
03:00 +13°C° 0 mm 1 m/s 583 mmHg 73%
04:00 +13°C° 0 mm 1 m/s 583 mmHg 73%
05:00 +13°C° 0 mm 1 m/s 583 mmHg 73%
06:00 +13°C° 0 mm 2 m/s 583 mmHg 72%
07:00 +16°C° 0 mm 2 m/s 585 mmHg 65%
08:00 +18°C° 0 mm 2 m/s 586 mmHg 58%
09:00 +21°C° 0 mm 2 m/s 588 mmHg 51%
10:00 +23°C° 0 mm 2 m/s 588 mmHg 49%
11:00 +24°C° 0 mm 3 m/s 588 mmHg 47%
12:00 +25°C° 0 mm 3 m/s 588 mmHg 46%
13:00 +24°C° 0.1 mm 3 m/s 587 mmHg 51%
14:00 +24°C° 0.1 mm 3 m/s 586 mmHg 56%
15:00 +22°C° 0.1 mm 3 m/s 586 mmHg 61%
16:00 +20°C° 0.3 mm 2 m/s 585 mmHg 74%
17:00 +19°C° 0.3 mm 1 m/s 585 mmHg 86%
18:00 +15°C° 0.3 mm 0 m/s 584 mmHg 98%
19:00 +15°C° 0.2 mm 0 m/s 585 mmHg 98%
20:00 +15°C° 0.2 mm 0 m/s 586 mmHg 97%
21:00 +14°C° 0.2 mm 0 m/s 586 mmHg 97%
22:00 +14°C° 0.1 mm 0 m/s 586 mmHg 95%
23:00 +14°C° 0.1 mm 0 m/s 586 mmHg 94%

Mâine, 25 Octombrie, Duminică

Timp Temperatura Precipitaţii Vânt Presiune Umiditate
00:00 +15°C° 0.1 mm 1 m/s 586 mmHg 92%
01:00 +14°C° 0 mm 1 m/s 586 mmHg 91%
02:00 +14°C° 0 mm 1 m/s 586 mmHg 90%
03:00 +13°C° 0 mm 1 m/s 586 mmHg 89%
04:00 +13°C° 0 mm 1 m/s 586 mmHg 88%
05:00 +13°C° 0 mm 1 m/s 586 mmHg 86%
06:00 +13°C° 0 mm 1 m/s 586 mmHg 85%
07:00 +15°C° 0 mm 1 m/s 587 mmHg 77%
08:00 +19°C° 0 mm 1 m/s 589 mmHg 69%
09:00 +21°C° 0 mm 1 m/s 590 mmHg 60%
10:00 +21°C° 0 mm 2 m/s 590 mmHg 55%
11:00 +24°C° 0 mm 2 m/s 590 mmHg 50%
12:00 +25°C° 0 mm 3 m/s 590 mmHg 45%
13:00 +24°C° 0.1 mm 3 m/s 589 mmHg 49%
14:00 +24°C° 0.1 mm 3 m/s 588 mmHg 54%
15:00 +22°C° 0.1 mm 3 m/s 587 mmHg 58%
16:00 +20°C° 0.2 mm 2 m/s 586 mmHg 71%
17:00 +19°C° 0.2 mm 1 m/s 586 mmHg 84%
18:00 +15°C° 0.2 mm 1 m/s 585 mmHg 98%
19:00 +15°C° 0.1 mm 1 m/s 586 mmHg 96%
20:00 +15°C° 0.1 mm 1 m/s 586 mmHg 95%
21:00 +15°C° 0.1 mm 1 m/s 586 mmHg 94%
22:00 +14°C° 0 mm 1 m/s 586 mmHg 92%
23:00 +14°C° 0 mm 1 m/s 586 mmHg 91%

Poimâine, 26 Octombrie, Luni

Timp Temperatura Precipitaţii Vânt Presiune Umiditate
00:00 +13°C° 0 mm 1 m/s 586 mmHg 90%
01:00 +13°C° 0 mm 1 m/s 586 mmHg 89%
02:00 +13°C° 0 mm 1 m/s 585 mmHg 88%
03:00 +12°C° 0 mm 1 m/s 585 mmHg 87%
04:00 +12°C° 0 mm 1 m/s 585 mmHg 85%
05:00 +12°C° 0 mm 2 m/s 585 mmHg 84%
06:00 +12°C° 0 mm 2 m/s 585 mmHg 83%
07:00 +14°C° 0 mm 2 m/s 586 mmHg 75%
08:00 +17°C° 0 mm 2 m/s 588 mmHg 67%
09:00 +19°C° 0 mm 2 m/s 589 mmHg 59%
10:00 +20°C° 0.1 mm 2 m/s 589 mmHg 55%
11:00 +21°C° 0.1 mm 3 m/s 589 mmHg 52%
12:00 +24°C° 0.1 mm 3 m/s 589 mmHg 48%
13:00 +22°C° 0.3 mm 3 m/s 588 mmHg 54%
14:00 +21°C° 0.3 mm 3 m/s 587 mmHg 60%
15:00 +20°C° 0.3 mm 3 m/s 586 mmHg 66%
16:00 +18°C° 0.4 mm 2 m/s 585 mmHg 76%
17:00 +16°C° 0.4 mm 1 m/s 585 mmHg 86%
18:00 +14°C° 0.4 mm 1 m/s 584 mmHg 96%
19:00 +14°C° 0.2 mm 1 m/s 584 mmHg 95%
20:00 +14°C° 0.2 mm 1 m/s 585 mmHg 95%
21:00 +12°C° 0.2 mm 0 m/s 585 mmHg 94%
22:00 +12°C° 0.2 mm 0 m/s 585 mmHg 94%
23:00 +13°C° 0.2 mm 1 m/s 585 mmHg 93%

, 27 Octombrie, Marţi

Timp Temperatura Precipitaţii Vânt Presiune Umiditate
00:00 +13°C° 0.2 mm 1 m/s 585 mmHg 93%
01:00 +12°C° 0.1 mm 1 m/s 584 mmHg 91%
02:00 +12°C° 0.1 mm 1 m/s 584 mmHg 90%
03:00 +11°C° 0.1 mm 1 m/s 584 mmHg 88%
04:00 +11°C° 0 mm 1 m/s 584 mmHg 87%
05:00 +11°C° 0 mm 1 m/s 584 mmHg 86%
06:00 +11°C° 0 mm 1 m/s 584 mmHg 85%
07:00 +13°C° 0 mm 1 m/s 585 mmHg 78%
08:00 +15°C° 0 mm 1 m/s 586 mmHg 71%
09:00 +19°C° 0 mm 1 m/s 588 mmHg 65%
10:00 +19°C° 0 mm 2 m/s 588 mmHg 56%
11:00 +20°C° 0 mm 2 m/s 588 mmHg 48%
12:00 +22°C° 0 mm 3 m/s 588 mmHg 40%
13:00 +21°C° 0.1 mm 3 m/s 587 mmHg 43%
14:00 +21°C° 0.1 mm 3 m/s 587 mmHg 45%
15:00 +20°C° 0.1 mm 3 m/s 586 mmHg 48%
16:00 +18°C° 0.2 mm 2 m/s 585 mmHg 62%
17:00 +15°C° 0.2 mm 1 m/s 585 mmHg 77%
18:00 +13°C° 0.2 mm 1 m/s 584 mmHg 92%
19:00 +13°C° 0 mm 1 m/s 584 mmHg 90%
20:00 +12°C° 0 mm 1 m/s 584 mmHg 87%
21:00 +12°C° 0 mm 1 m/s 584 mmHg 85%
22:00 +12°C° 0 mm 1 m/s 584 mmHg 83%
23:00 +11°C° 0 mm 1 m/s 584 mmHg 81%

27 Octombrie, Marţi

Timp Temperatura Precipitaţii Vânt Presiune Umiditate
00:00 +13°C° 0.2 mm 1 m/s 585 mmHg 93%
01:00 +12°C° 0.1 mm 1 m/s 584 mmHg 91%
02:00 +12°C° 0.1 mm 1 m/s 584 mmHg 90%
03:00 +11°C° 0.1 mm 1 m/s 584 mmHg 88%
04:00 +11°C° 0 mm 1 m/s 584 mmHg 87%
05:00 +11°C° 0 mm 1 m/s 584 mmHg 86%
06:00 +11°C° 0 mm 1 m/s 584 mmHg 85%
07:00 +13°C° 0 mm 1 m/s 585 mmHg 78%
08:00 +15°C° 0 mm 1 m/s 586 mmHg 71%
09:00 +19°C° 0 mm 1 m/s 588 mmHg 65%
10:00 +19°C° 0 mm 2 m/s 588 mmHg 56%
11:00 +20°C° 0 mm 2 m/s 588 mmHg 48%
12:00 +22°C° 0 mm 3 m/s 588 mmHg 40%
13:00 +21°C° 0.1 mm 3 m/s 587 mmHg 43%
14:00 +21°C° 0.1 mm 3 m/s 587 mmHg 45%
15:00 +20°C° 0.1 mm 3 m/s 586 mmHg 48%
16:00 +18°C° 0.2 mm 2 m/s 585 mmHg 62%
17:00 +15°C° 0.2 mm 1 m/s 585 mmHg 77%
18:00 +13°C° 0.2 mm 1 m/s 584 mmHg 92%
19:00 +13°C° 0 mm 1 m/s 584 mmHg 90%
20:00 +12°C° 0 mm 1 m/s 584 mmHg 87%
21:00 +12°C° 0 mm 1 m/s 584 mmHg 85%
22:00 +12°C° 0 mm 1 m/s 584 mmHg 83%
23:00 +11°C° 0 mm 1 m/s 584 mmHg 81%

28 Octombrie, Miercuri

Timp Temperatura Precipitaţii Vânt Presiune Umiditate
00:00 +11°C° 0 mm 1 m/s 584 mmHg 79%
01:00 +11°C° 0 mm 1 m/s 584 mmHg 76%
02:00 +10°C° 0 mm 2 m/s 584 mmHg 74%
03:00 +10°C° 0 mm 2 m/s 584 mmHg 72%
04:00 +9°C° 0 mm 2 m/s 584 mmHg 69%
05:00 +9°C° 0 mm 2 m/s 585 mmHg 66%
06:00 +9°C° 0 mm 2 m/s 585 mmHg 63%
07:00 +13°C° 0 mm 2 m/s 586 mmHg 56%
08:00 +16°C° 0 mm 1 m/s 588 mmHg 50%
09:00 +20°C° 0 mm 1 m/s 589 mmHg 43%
10:00 +20°C° 0 mm 2 m/s 589 mmHg 40%
11:00 +21°C° 0 mm 2 m/s 589 mmHg 37%
12:00 +24°C° 0 mm 3 m/s 589 mmHg 33%
13:00 +22°C° 0 mm 3 m/s 589 mmHg 34%
14:00 +22°C° 0 mm 3 m/s 588 mmHg 36%
15:00 +22°C° 0 mm 3 m/s 587 mmHg 37%
16:00 +19°C° 0 mm 2 m/s 586 mmHg 50%
17:00 +16°C° 0 mm 2 m/s 586 mmHg 62%
18:00 +13°C° 0 mm 1 m/s 585 mmHg 75%
19:00 +13°C° 0 mm 2 m/s 585 mmHg 72%
20:00 +13°C° 0 mm 2 m/s 585 mmHg 69%
21:00 +12°C° 0 mm 2 m/s 586 mmHg 67%
22:00 +12°C° 0 mm 2 m/s 586 mmHg 67%
23:00 +12°C° 0 mm 2 m/s 586 mmHg 67%

29 Octombrie, Joi

Timp Temperatura Precipitaţii Vânt Presiune Umiditate
00:00 +12°C° 0 mm 2 m/s 586 mmHg 68%
01:00 +12°C° 0 mm 2 m/s 586 mmHg 68%
02:00 +10°C° 0 mm 2 m/s 585 mmHg 68%
03:00 +10°C° 0 mm 2 m/s 585 mmHg 69%
04:00 +10°C° 0 mm 2 m/s 586 mmHg 67%
05:00 +10°C° 0 mm 2 m/s 586 mmHg 66%
06:00 +9°C° 0 mm 2 m/s 586 mmHg 65%
07:00 +13°C° 0 mm 2 m/s 588 mmHg 55%
08:00 +16°C° 0 mm 1 m/s 589 mmHg 45%
09:00 +20°C° 0 mm 1 m/s 590 mmHg 35%
10:00 +21°C° 0 mm 2 m/s 590 mmHg 30%
11:00 +23°C° 0 mm 2 m/s 590 mmHg 26%
12:00 +24°C° 0 mm 3 m/s 590 mmHg 22%
13:00 +24°C° 0 mm 3 m/s 590 mmHg 22%
14:00 +24°C° 0 mm 3 m/s 589 mmHg 22%
15:00 +22°C° 0 mm 3 m/s 588 mmHg 22%
16:00 +19°C° 0 mm 2 m/s 587 mmHg 34%
17:00 +16°C° 0 mm 2 m/s 586 mmHg 46%
18:00 +13°C° 0 mm 2 m/s 585 mmHg 58%
19:00 +13°C° 0 mm 2 m/s 586 mmHg 54%
20:00 +12°C° 0 mm 2 m/s 586 mmHg 50%
21:00 +12°C° 0 mm 2 m/s 586 mmHg 46%
22:00 +12°C° 0 mm 2 m/s 586 mmHg 45%
23:00 +10°C° 0 mm 2 m/s 586 mmHg 45%
Arată mai mult

Formular de consimțământ

Meteoprog și furnizorii noștri de servicii pot stoca și accesa date personale, precum cookies, identificatori de dispozitiv sau alte tehnologii similare pe dispozitivul dumneavoastră și procesa astfel de date pentru a personaliza conținutul și reclamele, dar și pentru a oferi caracteristici de social media și pentru a analiza traficul.

  • Stocarea și/sau accesarea informațiilor pe dispozitivul dumneavoastră

    Cookies, identificatori de dispozitiv sau alte informații pot fi stocate sau accesate pe dispozitiv în scopurile indicate mai sus.

  • Reclame și conținut personalizat, evaluarea reclamelor și a conținutului, informații despre audiențe și dezvoltarea produselor

    Reclamele și conținutul pot fi personalizate pe baza unui profil. Pot fi adăugate date suplimentare pentru a personaliza mai bine reclamele și conținutul. Performanța reclamelor și conținutului poate fi măsurată. Pot fi obținute informații despre utilizatorii care au văzut reclamele și conținutul. Aceste date pot fi utilizate pentru a dezvolta sau îmbunătăți experiența utilizatorilor, sistemele și software-ul.

Dând clic pe ‘Sunt de acord’, permiteți utilizarea cookie-urilor menționate, a identificatorilor de dispozitiv, balizelor web sau altor tehnologii similare. Setările pot fi modificate din browser-ul dispozitivului dumneavoastră.

În anumite scopuri, interesele legitime pot prima asupra consimțământului. Puteți citi mai multe informații în acest sens în Politica privind Confidențialitatea Datelor și Cookie.